Location: Larkspur
(54.4391°N, 113.7691°W)
Time: 14:30:41
(UTC+00:00)

METEOR M2 - Pass Details

Date: 03 December 2023
Orbit: 819 x 826 km, 98.4° (Epoch: 02 March)

Event Time Altitude Azimuth Distance (km) Brightness Sun altitude
Rises 14:02:24 0° 14° (NNE) 3,377 ? -12.6°
Reaches altitude 10° 14:04:46 10° 13° (NNE) 2,438 ? -12.3°
Maximum altitude 14:10:09 74° 290° (WNW) 860 ? -11.6°
Drops below altitude 10° 14:15:30 10° 206° (SSW) 2,417 ? -10.8°
Sets 14:17:50 0° 204° (SSW) 3,345 ? -10.5°
